Home > Time Zones > World Clock > Weather > Chad > Sarh > Past weeks

Flag for Chad Weather past 2 weeks in Sarh, Chad

Now
73 °F

Thunderstorms. Passing clouds.


Feels Like: 72 °F
Forecast: 82 / 100 °F
Wind: 12 mph from East

Location: Sarh Airport

Current Time: May 28, 2015 at 3:58:59 AM

Latest Report: May 28, 2015 at 3:00 AM


Visibility: N/A

Pressure: 29.98 "Hg

Humidity: 89%

Dew point: 70 °F

Location of SarhLocation

Historic Weather in Sarh — Graph

°F

Sarh temperature yesterday

Maximum temperature yesterday: 99 °F (at 2:00 PM)
Minimum temperature yesterday: 82 °F (at 6:00 AM)
Average temperature yesterday: 93 °F

Past Weeks' High & Low Weather Summary

 TemperatureHumidityPressure
High102 °F (May 17, 2:00 PM)100% (May 13, 5:00 AM)30.01 "Hg (May 13, 5:00 AM)
Low70 °F (May 13, 5:00 AM)9% (May 15, 9:00 AM)29.74 "Hg (May 18, 5:00 PM)
Average88 °F56%29.88 "Hg
* Reported May 13 2:00 AM — May 28 2:00 AM, Sarh, Weather by CustomWeather, © 2015

Note: Actual official high and low records may vary slightly from our data, if they occured in-between our weather recording intervals... More about our weather records

Advertising

Sarh weather history for previous 24 hours

 ConditionsComfort  
Time TempWeatherWind HumidityBarometerVisibility
2:00 AM
Thu, May 28
77 °FThunderstorms. Passing clouds.No wind74%29.95 "HgN/A
1:00 AM81 °FThunderstorms. Passing clouds.12 mph70%29.95 "HgN/A
12:00 AM84 °FThunderstorms. Passing clouds.5 mph58%29.92 "HgN/A
11:00 PM
Wed, May 27
88 °FThunderstorms. Passing clouds.7 mph55%29.92 "HgN/A
10:00 PM88 °FThunderstorms. Passing clouds.5 mph55%29.89 "HgN/A
9:00 PM90 °FPassing clouds.No wind52%29.86 "HgN/A
8:00 PM91 °FThunderstorms. Passing clouds.No wind46%29.86 "HgN/A
7:00 PM93 °FThunderstorms. Passing clouds.2 mph44%29.86 "HgN/A
6:00 PM95 °FPassing clouds.No wind39%29.80 "HgN/A
5:00 PM97 °FPassing clouds.5 mph37%29.80 "HgN/A
4:00 PM99 °FPassing clouds.5 mph33%29.80 "HgN/A
3:00 PM99 °FPassing clouds.No wind33%29.83 "HgN/A
2:00 PM99 °FPassing clouds.5 mph35%29.77 "HgN/A
1:00 PM97 °FPassing clouds.7 mph37%N/AN/A
12:00 PM95 °FPassing clouds.7 mph41%30.01 "HgN/A
11:00 AM93 °FSunny.7 mph44%29.95 "Hg10 mi
10:00 AM91 °FSunny.9 mph49%29.95 "Hg10 mi
8:00 AM86 °FSunny.5 mph59%29.95 "Hg10 mi
6:00 AM82 °FSunny.5 mph66%29.92 "Hg10 mi
Weather by CustomWeather, © 2015

See weather overviewHow to use our weather pages